Weather in Gari

Russia / Republic of Tatarstan     55°52′15″N   48°32′58″E
temp.,
°C
wind,
m/s
gust,
m/s
humid.,
%
clouds,
%
prec.,
mm/h
press.,
hPa
HPBL,
m
17 may, tue
tue1700:00+6w359259 0.0 1001110
03:00+5wsw379529 0.0 1000139
06:00+8w478849 0.0 1000347
09:00+11w446998 0.1 10001107
12:00+10w457282 0.2 1001789
15:00+12wsw456895 0.5 1000962
18:00+9sw4689100 2.2 1001281
21:00+8sw4794100 8.6 1001268
18 may, wed
wed1800:00+7wsw3795100 5.8 1000243
03:00+7wsw3794100 6.9 1000277
06:00+7wsw369398 0.6 1000278
09:00+9nw4694100 1.0 1001609
12:00+8nne489299 0.9 1003604
15:00+10nnw5780100 1.4 1004797
18:00+9nnw5883100 0.3 1006519
21:00+7nw3790100 0.4 1007239
19 may, thu
thu1900:00+6wnw248697 0.2 100894
03:00+5wnw3792100 0.2 1008221
06:00+4nw3596100 1.2 1009837
09:00+5nw3590100 1.4 1010506
12:00+7wnw577362 0.6 1010999
15:00+10w455795 0.7 10091564
18:00+7wnw5584100 0.8 1009554
21:00+6nnw369163 4.0 1010466
20 may, fri
fri2000:00+2wnw37957 0.1 1010151
03:00+2wnw3894100 0.1 1010198
06:00+4nw4787100 0.1 1011390
09:00+6nnw6879100 0.7 10111023
12:00+8nnw7969100 1.3 10111437
15:00+9nnw81062100 2.4 10111674
18:00+7nnw5107885 0.9 1012833
21:00+4nw348975 1.0 101366
21 may, sat
sat2100:00+2wnw34905 0.0 101261
03:00+1wnw349021 0.0 101271
06:00+4nw3681100 0.0 1012243
09:00+9nw46625 0.1 1011971
12:00+10nw565092 0.1 10101815
15:00+11nnw454663 0.1 10091903
18:00+10ne35605 0.0 1009293
21:00+4ne22705 0.0 100917